Location: Devore Heights
(34.2372°N, 117.4156°W)
Time: 18:47:32
(UTC+00:00)

deb Explorer IX - Pass Details

Date: 19 September 2024
Orbit: 502 x 816 km, 38.7° (Epoch: 15 October)

Event Time Altitude Azimuth Distance (km) Brightness Sun altitude
Rises 04:35:18 0° 282° (WNW) 3,390 ? -33.4°
Reaches altitude 10° 04:37:54 10° 286° (WNW) 2,466 ? -33.9°
Enters shadow 04:42:05 42° 314° (NW) 1,183 ? -34.6°
Maximum altitude 04:43:43 56° 4° (N) 994 - -34.9°
Drops below altitude 10° 04:49:24 10° 83° (E) 2,406 - -35.9°
Sets 04:51:54 0° 87° (E) 3,301 - -36.4°
